Location: *
(34.8620°S, 39.3380°E)
Time: 02:59:01
(UTC+00:00)

YAOGAN 1 - Pass Details

Date: 07 December 2021
Orbit: 618 x 620 km, 97.9° (Epoch: 27 January)

Event Time Altitude Azimuth Distance (km) Brightness Sun altitude
Rises 17:59:16 0° 186° (S) 2,928 6.8 -16.2°
Reaches altitude 10° 18:01:59 10° 204° (SSW) 2,013 6.3 -16.6°
Maximum altitude 18:05:04 19° 248° (WSW) 1,497 5.4 -17.0°
Drops below altitude 10° 18:08:07 10° 293° (WNW) 1,995 5.4 -17.5°
Sets 18:10:48 0° 311° (NW) 2,892 6.0 -17.9°
